Weather History for Omidieh, Iran

Change the Weather History Date:

Friday, April 27, 2012

  Actual Average Record
Temperature  
Mean Temperature 82 °F -  
Max Temperature 98 °F - - ()
Min Temperature 66 °F - - ()
Cooling Degree Days 17    
Growing Degree Days 32 (Base 50)    
Moisture  
Dew Point 42 °F    
Average Humidity 25    
Maximum Humidity 52    
Minimum Humidity 10    
Precipitation  
Precipitation 0.00 in - - ()
Sea Level Pressure  
Sea Level Pressure 29.85 in    
Wind  
Wind Speed 6 mph ()    
Max Wind Speed 18 mph    
Max Gust Speed -    
Visibility 6.3 miles    
Events      
T = Trace of Precipitation, MM = Missing Value Source: Averaged Metar Reports

Daily Weather History Graph

Daily Weather History Graph

Search for Another Location

Airport:

Trip Planner

Search our weather history database for the weather conditions in past years. The results will help you decide how hot, cold, wet, or windy it might be!

Date:

Astronomy

Apr. 27, 2012 Rise Set
Actual Time 6:30 AM IRDT 7:47 PM IRDT
Civil Twilight 6:05 AM IRDT 8:12 PM IRDT
Nautical Twilight 5:35 AM IRDT 8:42 PM IRDT
Astronomical Twilight 5:04 AM IRDT 9:14 PM IRDT
Moon 10:52 AM IRDT (4/27) No Moon Set
Length of Visible Light 14h 07m
Length of Day
13h 16m
Waxing Crescent, 30% of the Moon is Illuminated
Apr 27
Waxing Crescent
Apr 29
First Quarter
May 6
Full
May 13
Last Quarter
May 21
New

Hourly Weather History & Observations

Time (IRDT) Temp. Dew Point Humidity Pressure Visibility Wind Dir Wind Speed Gust Speed Precip Events Conditions
12:15 AM 73.4 °F 35.6 °F 25% 29.83 in - SE 6.9 mph - N/A   Clear
12:30 AM 73.4 °F 35.6 °F 25% 29.83 in - SE 6.9 mph - N/A   Clear
4:15 AM 69 °F 44 °F 28% 29.83 in 7 mi Calm Calm - -  
5:15 AM 68.0 °F 44.6 °F 43% 29.83 in - Calm Calm - N/A   Clear
5:30 AM 68.0 °F 44.6 °F 43% 29.83 in - Calm Calm - N/A   Clear
6:30 AM 66.2 °F 48.2 °F 52% 29.83 in - Calm Calm - N/A   Clear
8:15 AM 71.6 °F 39.2 °F 31% 29.89 in - SE 9.2 mph - N/A   Clear
8:30 AM 71.6 °F 39.2 °F 31% 29.89 in - SE 9.2 mph - N/A   Clear
9:30 AM 80.6 °F 39.2 °F 23% 29.89 in - SE 9.2 mph - N/A   Clear
10:30 AM 88 °F 39 °F 10% 29.91 in 6 mi ESE 6.7 mph - -  
11:30 AM 93.2 °F 39.2 °F 15% 29.89 in - Calm Calm - N/A   Clear
12:30 PM 95.0 °F 42.8 °F 16% 29.89 in - Calm Calm - N/A   Clear
2:30 PM 96.8 °F 41.0 °F 15% 29.86 in - NW 13.8 mph - N/A   Clear
3:30 PM 98.6 °F 44.6 °F 16% 29.83 in 6.2 mi NNW 18.4 mph - N/A   Partly Cloudy
5:30 PM 98.6 °F 41.0 °F 14% 29.80 in - North 16.1 mph - N/A   Clear
6:30 PM 96.8 °F 44.6 °F 17% 29.80 in - NNW 11.5 mph - N/A   Clear
8:30 PM 87.8 °F 46.4 °F 24% 29.80 in - NNW 11.5 mph - N/A   Clear
9:30 PM 82.4 °F 46.4 °F 28% 29.83 in - NNW 11.5 mph - N/A   Clear
10:30 PM 82 °F 46 °F 18% 29.84 in 6 mi North 8.9 mph - -  
11:30 PM 80.6 °F 44.6 °F 28% 29.83 in - North 9.2 mph - N/A   Clear